Weather History for KLUK - November, 2012

Change the Weather History Date:

Sunday, November 4, 2012

  Actual Average Record
Temperature  
Mean Temperature 39 °F -  
Max Temperature 51 °F 57 °F 80 °F (1987)
Min Temperature 30 °F 40 °F 20 °F (1991)
Degree Days  
Heating Degree Days 26    
Moisture  
Dew Point 32 °F    
Average Humidity 82    
Maximum Humidity 100    
Minimum Humidity 54    
Precipitation  
Precipitation 0.00 in - - ()
Sea Level Pressure  
Sea Level Pressure 30.17 in    
Wind  
Wind Speed 1 mph (North)    
Max Wind Speed 9 mph    
Max Gust Speed -    
Visibility 6 miles    
Events Fog    
Averages and records for this station are not official NWS values.
T = Trace of Precipitation, MM = Missing Value Source: NWS Daily Summary

Daily Weather History Graph

Daily Weather History Graph

Search for Another Location

Airport or City:

Trip Planner

Search our weather history database for the weather conditions in past years. The results will help you decide how hot, cold, wet, or windy it might be!

Date:

Astronomy

Nov. 04, 2012 Rise Set
Actual Time 7:09 AM EST 5:32 PM EST
Civil Twilight 6:41 AM EST 6:00 PM EST
Nautical Twilight 6:09 AM EST 6:32 PM EST
Astronomical Twilight 5:38 AM EST 7:03 PM EST
Moon 10:10 PM EST (11/4) 11:51 AM EST (11/4)
Length of Visible Light 11h 19m
Length of Day
10h 23m
Waning Gibbous, 72% of the Moon is Illuminated
Nov 4
Waning Gibbous
Nov 6
Last Quarter
Nov 13
New
Nov 20
First Quarter
Nov 28
Full

Hourly Weather History & Observations

Time (EST) Temp. Windchill Dew Point Humidity Pressure Visibility Wind Dir Wind Speed Gust Speed Precip Events Conditions
12:53 AM 42.1 °F - 37.0 °F 82% 30.15 in 10.0 mi Calm Calm - N/A   Overcast
1:53 AM 42.1 °F - 37.9 °F 85% 30.15 in 10.0 mi Calm Calm - N/A   Overcast
1:53 AM 39.0 °F 35.7 °F 35.1 °F 86% 30.15 in 10.0 mi North 4.6 mph - N/A   Clear
2:44 AM 33.8 °F - 33.8 °F 100% 30.14 in 1.8 mi Calm Calm - N/A   Clear
2:53 AM 35.1 °F - 34.0 °F 96% 30.15 in 1.5 mi Calm Calm - N/A   Clear
3:18 AM 33.8 °F - 32.0 °F 93% 30.14 in 0.5 mi Calm Calm - N/A Fog Fog
3:53 AM 33.1 °F - 32.0 °F 96% 30.15 in 0.5 mi Calm Calm - N/A Fog Fog
4:53 AM 32.0 °F - 30.9 °F 96% 30.17 in 0.5 mi Calm Calm - N/A Fog Fog
5:26 AM 30.2 °F - 30.2 °F 100% 30.16 in 0.5 mi Calm Calm - N/A Fog Light Freezing Fog
5:35 AM 30.2 °F - 30.2 °F 100% 30.16 in 0.2 mi Calm Calm - N/A Fog Light Freezing Fog
5:42 AM 30.2 °F - 30.2 °F 100% 30.16 in 0.5 mi Calm Calm - N/A Fog Light Freezing Fog
5:53 AM 32.0 °F - 30.0 °F 92% 30.17 in 0.2 mi Calm Calm - N/A Fog Fog
6:03 AM 32.0 °F - 30.2 °F 93% 30.16 in 0.5 mi Calm Calm - N/A Fog Fog
6:11 AM 30.2 °F - 28.4 °F 93% 30.16 in 0.2 mi Calm Calm - N/A Fog Light Freezing Fog
6:27 AM 30.2 °F - 30.2 °F 100% 30.16 in 0.5 mi Calm Calm - N/A Fog Light Freezing Fog
6:51 AM 30.2 °F - 28.4 °F 93% 30.16 in 1.0 mi Calm Calm - N/A Fog Patches of Fog
6:53 AM 30.9 °F - 28.9 °F 92% 30.17 in 2.0 mi Calm Calm - N/A Fog Patches of Fog
7:53 AM 30.9 °F - 30.0 °F 96% 30.19 in 2.0 mi Calm Calm - N/A Fog Patches of Fog
8:30 AM 32.0 °F - 32.0 °F 100% 30.20 in 5.0 mi Calm Calm - N/A   Clear
8:53 AM 35.1 °F - 34.0 °F 96% 30.21 in 5.0 mi Calm Calm - N/A   Clear
9:53 AM 39.0 °F - 35.1 °F 86% 30.20 in 10.0 mi Calm Calm - N/A   Mostly Cloudy
10:53 AM 45.0 °F - 36.0 °F 71% 30.19 in 10.0 mi Calm Calm - N/A   Clear
11:53 AM 46.9 °F - 35.1 °F 63% 30.18 in 10.0 mi Calm Calm - N/A   Mostly Cloudy
12:53 PM 48.0 °F - 33.1 °F 56% 30.17 in 10.0 mi NNW 3.5 mph - N/A   Overcast
1:53 PM 48.0 °F - 33.1 °F 56% 30.16 in 10.0 mi North 5.8 mph - N/A   Scattered Clouds
2:53 PM 48.0 °F - 32.0 °F 54% 30.15 in 10.0 mi NW 5.8 mph - N/A   Scattered Clouds
3:53 PM 48.9 °F - 33.1 °F 54% 30.15 in 10.0 mi NNE 9.2 mph - N/A   Overcast
4:53 PM 46.0 °F 41.9 °F 32.0 °F 58% 30.15 in 10.0 mi North 8.1 mph - N/A   Mostly Cloudy
5:53 PM 44.1 °F 40.8 °F 33.1 °F 65% 30.16 in 10.0 mi North 5.8 mph - N/A   Overcast
6:53 PM 43.0 °F 40.3 °F 32.0 °F 65% 30.18 in 10.0 mi North 4.6 mph - N/A   Overcast
7:53 PM 42.1 °F 37.1 °F 32.0 °F 67% 30.19 in 10.0 mi North 8.1 mph - N/A   Mostly Cloudy
8:53 PM 41.0 °F 35.8 °F 30.0 °F 65% 30.19 in 10.0 mi North 8.1 mph - N/A   Overcast
9:53 PM 39.0 °F - 28.9 °F 67% 30.19 in 10.0 mi Calm Calm - N/A   Overcast
10:53 PM 37.9 °F 35.5 °F 28.9 °F 70% 30.19 in 10.0 mi North 3.5 mph - N/A   Overcast